Home   Weather   Abu Dhabi   Past weeks

Flag for United Arab Emirates Past Weather in Abu Dhabi, Abu Dhabi, United Arab Emirates — Yesterday and Last 2 Weeks

Now
61 °F

Clear.


Feels Like: 61 °F
Forecast: 60 / 69 °F
Wind: 2 mph from Northwest

Location: Abu Dhabi Bateen Airport

Current Time: Feb 22, 2017 at 3:54:35 am

Latest Report: Feb 22, 2017 at 3:00 am


Visibility: 10 mi

Pressure: 30.01 "Hg

Humidity: 83%

Dew Point: 55 °F

Location of Abu DhabiLocation

Past Weather in Abu Dhabi — Graph

°F

Abu Dhabi Temperature Yesterday

Maximum temperature yesterday: 66 °F (at 10:00 am)
Minimum temperature yesterday: 63 °F (at 1:00 am)
Average temperature yesterday: 64 °F

High & Low Weather Summary for the Past Weeks

 TemperatureHumidityPressure
High86 °F (Feb 13, 3:00 pm)100% (Feb 7, 8:00 pm)30.33 "Hg (Feb 7, 8:00 pm)
Low50 °F (Feb 7, 8:00 pm)28% (Feb 9, 4:00 pm)29.80 "Hg (Feb 17, 4:00 pm)
Average70 °F62%30.05 "Hg
* Reported Feb 7 2:00 am — Feb 22 2:00 am, Abu Dhabi, Weather by CustomWeather, © 2017

Note: Actual official high and low records may vary slightly from our data, if they occured in-between our weather recording intervals... More about our weather records

Advertising

Abu Dhabi Weather History for the Previous 24 Hours

Scroll right to see more
 ConditionsComfort  
Time TempWeatherWind HumidityBarometerVisibility
2:00 am
Wed, Feb 22
63 °FClear.2 mph77%30.01 "Hg10 mi
1:00 am63 °FClear.5 mph77%30.01 "Hg10 mi
12:00 am63 °FPassing clouds.3 mph77%30.04 "HgN/A
11:00 pm
Tue, Feb 21
63 °FClear.6 mph77%30.04 "Hg10 mi
10:00 pm63 °FClear.7 mph77%30.04 "Hg10 mi
9:00 pm63 °FClear.7 mph77%30.04 "Hg10 mi
8:00 pm64 °FPassing clouds.8 mph73%30.04 "HgN/A
7:00 pm64 °FPassing clouds.8 mph73%30.01 "HgN/A
6:00 pm64 °FPassing clouds.12 mph68%30.01 "HgN/A
5:00 pm66 °FPassing clouds.10 mph64%29.98 "HgN/A
4:00 pm66 °FScattered clouds.12 mph64%29.98 "HgN/A
3:00 pm64 °FScattered clouds.12 mph73%30.01 "HgN/A
2:00 pm66 °FScattered clouds.12 mph68%30.04 "HgN/A
1:00 pm64 °FScattered clouds.9 mph78%30.04 "HgN/A
12:00 pm64 °FLight rain. Passing clouds.13 mph73%30.09 "HgN/A
11:00 am64 °FPassing clouds.15 mph68%30.09 "HgN/A
10:00 am66 °FScattered clouds.13 mph68%30.09 "HgN/A
9:00 am64 °FScattered clouds.14 mph73%30.09 "HgN/A
8:00 am63 °FScattered clouds.8 mph83%30.07 "HgN/A
7:00 am63 °FPassing clouds.6 mph77%30.07 "HgN/A
6:00 am63 °FPassing clouds.5 mph77%30.04 "HgN/A
5:00 am63 °FPassing clouds.10 mph77%30.04 "HgN/A
4:00 am63 °FPassing clouds.12 mph73%30.07 "HgN/A
3:00 am63 °FPassing clouds.7 mph73%30.01 "HgN/A
Weather by CustomWeather, © 2017

See weather overviewHow to use our weather pages